Time,TemperatureF,DewpointF,PressureIn,WindDirection,WindDirectionDegrees,WindSpeedMPH,WindSpeedGustMPH,Humidity,HourlyPrecipIn,Conditions,Clouds,dailyrainin,SoftwareType,DateUTC
2013-02-17 00:02:00,26.0,25.0,29.68,WSW,251,8.0,21.0,95,0.00,,,0.00,,2013-02-17 05:02:00,
2013-02-17 00:12:00,26.0,25.0,29.68,WNW,295,8.0,22.0,95,0.00,,,0.00,,2013-02-17 05:12:00,
2013-02-17 00:22:00,26.0,25.0,29.68,WNW,295,8.0,22.0,95,0.00,,,0.00,,2013-02-17 05:22:00,
2013-02-17 00:33:00,25.0,24.0,29.67,West,277,6.0,21.0,95,0.00,,,0.00,,2013-02-17 05:33:00,
2013-02-17 00:42:00,25.0,24.0,29.67,West,277,6.0,21.0,95,0.00,,,0.00,,2013-02-17 05:42:00,
2013-02-17 00:52:00,26.0,25.0,29.65,SSW,198,9.0,24.0,96,0.00,,,0.00,,2013-02-17 05:52:00,
2013-02-17 01:02:00,25.0,24.0,29.64,SSE,154,12.0,22.0,95,0.00,,,0.00,,2013-02-17 06:02:00,
2013-02-17 01:11:00,25.0,24.0,29.64,SSE,154,12.0,22.0,95,0.00,,,0.00,,2013-02-17 06:11:00,
2013-02-17 01:21:00,25.0,24.0,29.62,WSW,240,8.0,24.0,95,0.00,,,0.00,,2013-02-17 06:21:00,
2013-02-17 01:32:00,25.0,24.0,29.61,West,265,14.0,26.0,94,0.00,,,0.00,,2013-02-17 06:32:00,
2013-02-17 01:42:00,25.0,24.0,29.61,West,265,14.0,26.0,94,0.00,,,0.00,,2013-02-17 06:42:00,
2013-02-17 01:51:00,25.0,23.0,29.60,West,270,10.0,25.0,93,0.00,,,0.00,,2013-02-17 06:51:00,
2013-02-17 02:01:00,25.0,23.0,29.59,West,269,8.0,22.0,92,0.00,,,0.00,,2013-02-17 07:01:00,
2013-02-17 02:11:00,25.0,23.0,29.57,West,262,10.0,28.0,92,0.00,,,0.00,,2013-02-17 07:11:00,
2013-02-17 02:21:00,25.0,23.0,29.57,West,262,10.0,28.0,92,0.00,,,0.00,,2013-02-17 07:21:00,
2013-02-17 02:32:00,25.0,23.0,29.57,West,269,14.0,24.0,92,0.00,,,0.00,,2013-02-17 07:32:00,
2013-02-17 02:42:00,25.0,23.0,29.57,West,269,14.0,24.0,92,0.00,,,0.00,,2013-02-17 07:42:00,
2013-02-17 02:51:00,25.0,23.0,29.57,West,277,13.0,26.0,92,0.00,,,0.00,,2013-02-17 07:51:00,
2013-02-17 03:01:00,24.0,22.0,29.56,South,191,6.0,23.0,92,0.00,,,0.00,,2013-02-17 08:01:00,
2013-02-17 03:11:00,24.0,22.0,29.56,South,191,6.0,23.0,92,0.00,,,0.00,,2013-02-17 08:11:00,
2013-02-17 03:21:00,24.0,22.0,29.54,WSW,254,12.0,21.0,93,0.00,,,0.00,,2013-02-17 08:21:00,
2013-02-17 03:32:00,23.0,21.0,29.53,WNW,287,10.0,22.0,93,0.00,,,0.00,,2013-02-17 08:32:00,
2013-02-17 03:42:00,23.0,21.0,29.53,WNW,287,10.0,22.0,93,0.00,,,0.00,,2013-02-17 08:42:00,
2013-02-17 03:52:00,23.0,22.0,29.53,WSW,244,11.0,22.0,94,0.00,,,0.00,,2013-02-17 08:52:00,
2013-02-17 04:02:00,23.0,22.0,29.52,WSW,254,10.0,21.0,94,0.00,,,0.00,,2013-02-17 09:02:00,
2013-02-17 04:11:00,23.0,22.0,29.52,WSW,254,10.0,21.0,94,0.00,,,0.00,,2013-02-17 09:11:00,
2013-02-17 04:21:00,23.0,22.0,29.49,West,275,12.0,26.0,94,0.00,,,0.00,,2013-02-17 09:21:00,
2013-02-17 04:32:00,23.0,22.0,29.48,West,263,11.0,27.0,94,0.00,,,0.00,,2013-02-17 09:32:00,
2013-02-17 04:42:00,23.0,22.0,29.48,West,263,11.0,27.0,94,0.00,,,0.00,,2013-02-17 09:42:00,
2013-02-17 04:51:00,23.0,22.0,29.48,WNW,290,10.0,26.0,94,0.00,,,0.00,,2013-02-17 09:51:00,
2013-02-17 05:01:00,22.0,20.0,29.48,West,273,10.0,23.0,93,0.00,,,0.00,,2013-02-17 10:01:00,
2013-02-17 05:11:00,22.0,20.0,29.48,West,273,10.0,23.0,93,0.00,,,0.00,,2013-02-17 10:11:00,
2013-02-17 05:21:00,22.0,20.0,29.48,SSE,165,4.0,18.0,93,0.00,,,0.00,,2013-02-17 10:21:00,
2013-02-17 05:32:00,22.0,20.0,29.45,West,273,11.0,23.0,93,0.00,,,0.00,,2013-02-17 10:32:00,
2013-02-17 05:42:00,22.0,20.0,29.45,West,273,11.0,23.0,93,0.00,,,0.00,,2013-02-17 10:42:00,
2013-02-17 05:52:00,22.0,20.0,29.42,WSW,253,12.0,32.0,93,0.00,,,0.00,,2013-02-17 10:52:00,
2013-02-17 06:01:00,22.0,20.0,29.41,West,271,19.0,30.0,92,0.00,,,0.00,,2013-02-17 11:01:00,
2013-02-17 06:11:00,22.0,20.0,29.41,West,271,19.0,30.0,92,0.00,,,0.00,,2013-02-17 11:11:00,
2013-02-17 06:22:00,22.0,20.0,29.41,West,262,14.0,30.0,92,0.00,,,0.00,,2013-02-17 11:22:00,
2013-02-17 06:32:00,22.0,20.0,29.39,WSW,248,12.0,23.0,92,0.00,,,0.00,,2013-02-17 11:32:00,
2013-02-17 06:42:00,22.0,20.0,29.39,WSW,248,12.0,23.0,92,0.00,,,0.00,,2013-02-17 11:42:00,
2013-02-17 06:52:00,22.0,20.0,29.38,SW,215,10.0,24.0,91,0.00,,,0.00,,2013-02-17 11:52:00,
2013-02-17 07:03:00,22.0,20.0,29.37,SSW,209,13.0,30.0,91,0.00,,,0.00,,2013-02-17 12:03:00,
2013-02-17 07:11:00,22.0,20.0,29.37,SSW,209,13.0,30.0,91,0.00,,,0.00,,2013-02-17 12:11:00,
2013-02-17 07:22:00,22.0,20.0,29.35,West,268,13.0,30.0,91,0.00,,,0.00,,2013-02-17 12:22:00,
2013-02-17 07:32:00,22.0,20.0,29.33,West,268,14.0,30.0,90,0.00,,,0.00,,2013-02-17 12:32:00,
2013-02-17 07:42:00,22.0,20.0,29.33,West,268,14.0,30.0,90,0.00,,,0.00,,2013-02-17 12:42:00,
2013-02-17 07:52:00,22.0,19.0,29.31,West,262,12.0,35.0,89,0.00,,,0.00,,2013-02-17 12:52:00,
2013-02-17 08:02:00,22.0,19.0,29.31,WNW,283,12.0,34.0,89,0.00,,,0.00,,2013-02-17 13:02:00,
2013-02-17 08:12:00,22.0,19.0,29.31,WNW,283,12.0,34.0,89,0.00,,,0.00,,2013-02-17 13:12:00,
2013-02-17 08:22:00,22.0,19.0,29.30,West,261,18.0,30.0,89,0.00,,,0.00,,2013-02-17 13:22:00,
2013-02-17 08:32:00,22.0,19.0,29.28,West,261,12.0,25.0,89,0.00,,,0.00,,2013-02-17 13:32:00,
2013-02-17 08:42:00,22.0,19.0,29.28,West,261,12.0,25.0,89,0.00,,,0.00,,2013-02-17 13:42:00,
2013-02-17 08:51:00,22.0,20.0,29.25,West,261,13.0,26.0,90,0.00,,,0.00,,2013-02-17 13:51:00,
2013-02-17 09:01:00,22.0,20.0,29.23,West,280,14.0,28.0,91,0.00,,,0.00,,2013-02-17 14:01:00,
2013-02-17 09:11:00,22.0,20.0,29.23,West,280,14.0,28.0,91,0.00,,,0.00,,2013-02-17 14:11:00,
2013-02-17 09:22:00,22.0,20.0,29.21,WSW,255,19.0,31.0,92,0.00,,,0.00,,2013-02-17 14:22:00,
2013-02-17 09:32:00,22.0,20.0,29.20,West,274,13.0,30.0,91,0.00,,,0.00,,2013-02-17 14:32:00,
2013-02-17 09:42:00,22.0,20.0,29.20,West,274,13.0,30.0,91,0.00,,,0.00,,2013-02-17 14:42:00,
2013-02-17 09:52:00,22.0,20.0,29.18,WSW,249,10.0,30.0,91,0.00,,,0.00,,2013-02-17 14:52:00,
2013-02-17 10:02:00,22.0,20.0,29.17,WNW,300,15.0,31.0,91,0.00,,,0.00,,2013-02-17 15:02:00,
2013-02-17 10:11:00,22.0,20.0,29.17,WNW,300,15.0,31.0,91,0.00,,,0.00,,2013-02-17 15:11:00,
2013-02-17 10:21:00,23.0,21.0,29.15,West,273,13.0,27.0,90,0.00,,,0.00,,2013-02-17 15:21:00,
2013-02-17 10:32:00,23.0,21.0,29.13,SSE,159,7.0,33.0,90,0.00,,,0.00,,2013-02-17 15:32:00,
2013-02-17 10:42:00,23.0,21.0,29.13,SSE,159,7.0,33.0,90,0.00,,,0.00,,2013-02-17 15:42:00,
2013-02-17 10:52:00,23.0,21.0,29.11,ESE,111,13.0,33.0,91,0.00,,,0.00,,2013-02-17 15:52:00,
2013-02-17 11:01:00,23.0,21.0,29.10,WSW,255,12.0,32.0,90,0.00,,,0.00,,2013-02-17 16:01:00,
2013-02-17 11:12:00,23.0,21.0,29.10,WSW,255,12.0,32.0,90,0.00,,,0.00,,2013-02-17 16:12:00,
2013-02-17 11:21:00,23.0,20.0,29.08,WNW,283,13.0,31.0,89,0.00,,,0.00,,2013-02-17 16:21:00,
2013-02-17 11:32:00,24.0,21.0,29.06,West,275,12.0,40.0,88,0.00,,,0.00,,2013-02-17 16:32:00,
2013-02-17 11:42:00,24.0,21.0,29.06,West,275,12.0,40.0,88,0.00,,,0.00,,2013-02-17 16:42:00,
2013-02-17 11:51:00,24.0,21.0,29.03,WNW,282,10.0,39.0,89,0.00,,,0.00,,2013-02-17 16:51:00,
2013-02-17 12:02:00,23.0,21.0,29.00,WNW,293,3.0,32.0,90,0.00,,,0.00,,2013-02-17 17:02:00,
2013-02-17 12:11:00,23.0,21.0,29.00,WNW,293,3.0,32.0,90,0.00,,,0.00,,2013-02-17 17:11:00,
2013-02-17 12:21:00,23.0,21.0,28.99,SSE,151,7.0,26.0,90,0.00,,,0.00,,2013-02-17 17:21:00,
2013-02-17 12:32:00,23.0,21.0,28.97,West,269,8.0,31.0,90,0.00,,,0.00,,2013-02-17 17:32:00,
2013-02-17 12:42:00,23.0,21.0,28.97,West,269,8.0,31.0,90,0.00,,,0.00,,2013-02-17 17:42:00,
2013-02-17 12:52:00,22.0,20.0,28.95,NW,312,9.0,33.0,91,0.00,,,0.00,,2013-02-17 17:52:00,
2013-02-17 13:02:00,22.0,20.0,28.95,ESE,123,7.0,31.0,91,0.00,,,0.00,,2013-02-17 18:02:00,
2013-02-17 13:11:00,22.0,20.0,28.95,ESE,123,7.0,31.0,91,0.00,,,0.00,,2013-02-17 18:11:00,
2013-02-17 13:22:00,22.0,20.0,28.94,WNW,285,9.0,28.0,92,0.00,,,0.00,,2013-02-17 18:22:00,
2013-02-17 13:33:00,23.0,21.0,28.94,West,277,7.0,22.0,92,0.00,,,0.00,,2013-02-17 18:33:00,
2013-02-17 13:42:00,23.0,21.0,28.94,West,277,7.0,22.0,92,0.00,,,0.00,,2013-02-17 18:42:00,
2013-02-17 13:52:00,23.0,21.0,28.92,West,271,4.0,28.0,92,0.00,,,0.00,,2013-02-17 18:52:00,
2013-02-17 14:02:00,23.0,21.0,28.92,SW,236,9.0,28.0,93,0.00,,,0.00,,2013-02-17 19:02:00,
2013-02-17 14:11:00,23.0,21.0,28.92,SW,236,9.0,28.0,93,0.00,,,0.00,,2013-02-17 19:11:00,
2013-02-17 14:22:00,23.0,21.0,28.91,WSW,245,3.0,22.0,92,0.00,,,0.00,,2013-02-17 19:22:00,
2013-02-17 14:32:00,23.0,21.0,28.91,WSW,240,4.0,22.0,93,0.00,,,0.00,,2013-02-17 19:32:00,
2013-02-17 14:42:00,23.0,21.0,28.91,WSW,240,4.0,22.0,93,0.00,,,0.00,,2013-02-17 19:42:00,
2013-02-17 14:52:00,22.0,20.0,28.91,WNW,294,3.0,14.0,92,0.00,,,0.00,,2013-02-17 19:52:00,
2013-02-17 15:02:00,22.0,20.0,28.92,WNW,301,3.0,18.0,93,0.00,,,0.00,,2013-02-17 20:02:00,
2013-02-17 15:11:00,22.0,20.0,28.92,WNW,301,3.0,18.0,93,0.00,,,0.00,,2013-02-17 20:11:00,
2013-02-17 15:22:00,21.0,19.0,28.92,ESE,115,5.0,22.0,93,0.00,,,0.00,,2013-02-17 20:22:00,
2013-02-17 15:32:00,21.0,19.0,28.92,SE,144,3.0,14.0,93,0.00,,,0.00,,2013-02-17 20:32:00,
2013-02-17 15:42:00,21.0,19.0,28.92,SE,144,3.0,14.0,93,0.00,,,0.00,,2013-02-17 20:42:00,
2013-02-17 15:52:00,21.0,19.0,28.93,WSW,252,3.0,25.0,93,0.00,,,0.00,,2013-02-17 20:52:00,
2013-02-17 16:02:00,21.0,20.0,28.92,ENE,72,4.0,25.0,94,0.00,,,0.00,,2013-02-17 21:02:00,
2013-02-17 16:11:00,21.0,20.0,28.92,ENE,72,4.0,25.0,94,0.00,,,0.00,,2013-02-17 21:11:00,
2013-02-17 16:21:00,21.0,20.0,28.92,SSW,196,4.0,21.0,94,0.00,,,0.00,,2013-02-17 21:21:00,
2013-02-17 16:32:00,20.0,18.0,28.93,SW,215,3.0,16.0,93,0.00,,,0.00,,2013-02-17 21:32:00,
2013-02-17 16:42:00,20.0,18.0,28.93,SW,215,3.0,16.0,93,0.00,,,0.00,,2013-02-17 21:42:00,
2013-02-17 16:53:00,20.0,18.0,28.93,SW,234,5.0,21.0,93,0.00,,,0.00,,2013-02-17 21:53:00,
2013-02-17 17:01:00,20.0,18.0,28.93,WNW,300,3.0,25.0,92,0.00,,,0.00,,2013-02-17 22:01:00,
2013-02-17 17:12:00,20.0,18.0,28.93,WNW,300,3.0,25.0,92,0.00,,,0.00,,2013-02-17 22:12:00,
2013-02-17 17:22:00,20.0,18.0,28.94,SSE,151,6.0,21.0,92,0.00,,,0.00,,2013-02-17 22:22:00,
2013-02-17 17:32:00,20.0,18.0,28.95,SSW,200,3.0,26.0,92,0.01,,,0.01,,2013-02-17 22:32:00,
2013-02-17 17:42:00,20.0,18.0,28.95,SSW,200,3.0,26.0,92,0.01,,,0.01,,2013-02-17 22:42:00,
2013-02-17 17:52:00,20.0,18.0,28.95,WSW,242,4.0,22.0,92,0.01,,,0.01,,2013-02-17 22:52:00,
2013-02-17 18:02:00,20.0,18.0,28.96,WSW,241,6.0,24.0,91,0.01,,,0.01,,2013-02-17 23:02:00,
2013-02-17 18:11:00,20.0,18.0,28.96,WSW,241,6.0,24.0,91,0.01,,,0.01,,2013-02-17 23:11:00,
2013-02-17 18:21:00,21.0,19.0,28.97,SE,134,3.0,20.0,91,0.01,,,0.01,,2013-02-17 23:21:00,
2013-02-17 18:32:00,21.0,19.0,28.98,South,184,6.0,24.0,91,0.00,,,0.01,,2013-02-17 23:32:00,
2013-02-17 18:42:00,21.0,19.0,28.98,South,184,6.0,24.0,91,0.00,,,0.01,,2013-02-17 23:42:00,
2013-02-17 18:52:00,20.0,18.0,28.99,SSE,166,3.0,19.0,92,0.00,,,0.01,,2013-02-17 23:52:00,
2013-02-17 19:02:00,19.0,17.0,29.00,South,180,5.0,19.0,92,0.00,,,0.01,,2013-02-18 00:02:00,
2013-02-17 19:11:00,19.0,17.0,29.00,South,180,5.0,19.0,92,0.00,,,0.01,,2013-02-18 00:11:00,
2013-02-17 19:22:00,19.0,17.0,29.00,ESE,115,7.0,21.0,93,0.00,,,0.01,,2013-02-18 00:22:00,
2013-02-17 19:32:00,19.0,17.0,29.00,ESE,113,6.0,22.0,93,0.00,,,0.01,,2013-02-18 00:32:00,
2013-02-17 19:41:00,19.0,17.0,29.00,ESE,113,6.0,22.0,93,0.00,,,0.01,,2013-02-18 00:41:00,
2013-02-17 19:52:00,19.0,17.0,29.02,WSW,252,5.0,23.0,92,0.00,,,0.01,,2013-02-18 00:52:00,
2013-02-17 20:01:00,19.0,17.0,29.03,SSE,156,3.0,21.0,90,0.00,,,0.01,,2013-02-18 01:01:00,
2013-02-17 20:12:00,19.0,17.0,29.03,SSE,156,3.0,21.0,90,0.00,,,0.01,,2013-02-18 01:12:00,
2013-02-17 20:21:00,19.0,16.0,29.03,SE,136,3.0,16.0,88,0.00,,,0.01,,2013-02-18 01:21:00,
2013-02-17 20:32:00,19.0,16.0,29.05,SSE,148,6.0,19.0,86,0.00,,,0.01,,2013-02-18 01:32:00,
2013-02-17 20:42:00,19.0,16.0,29.05,SSE,148,6.0,19.0,86,0.00,,,0.01,,2013-02-18 01:42:00,
2013-02-17 20:52:00,19.0,15.0,29.06,South,175,6.0,24.0,83,0.00,,,0.01,,2013-02-18 01:52:00,
2013-02-17 21:02:00,19.0,14.0,29.06,SW,227,3.0,18.0,80,0.00,,,0.01,,2013-02-18 02:02:00,
2013-02-17 21:11:00,19.0,14.0,29.06,SW,227,3.0,18.0,80,0.00,,,0.01,,2013-02-18 02:11:00,
2013-02-17 21:22:00,19.0,14.0,29.07,SW,214,6.0,23.0,79,0.00,,,0.01,,2013-02-18 02:22:00,
2013-02-17 21:32:00,19.0,13.0,29.08,SE,146,6.0,21.0,77,0.00,,,0.01,,2013-02-18 02:32:00,
2013-02-17 21:42:00,19.0,13.0,29.08,SE,146,6.0,21.0,77,0.00,,,0.01,,2013-02-18 02:42:00,
2013-02-17 21:52:00,19.0,12.0,29.09,South,175,7.0,27.0,75,0.00,,,0.01,,2013-02-18 02:52:00,
2013-02-17 22:01:00,19.0,12.0,29.10,SSE,159,3.0,25.0,75,0.00,,,0.01,,2013-02-18 03:01:00,
2013-02-17 22:11:00,19.0,12.0,29.10,SSE,159,3.0,25.0,75,0.00,,,0.01,,2013-02-18 03:11:00,
2013-02-17 22:21:00,19.0,12.0,29.11,SSE,168,6.0,18.0,75,0.00,,,0.01,,2013-02-18 03:21:00,
2013-02-17 22:32:00,19.0,13.0,29.11,SE,146,2.0,17.0,76,0.00,,,0.01,,2013-02-18 03:32:00,
2013-02-17 22:42:00,19.0,13.0,29.11,SE,146,2.0,17.0,76,0.00,,,0.01,,2013-02-18 03:42:00,
2013-02-17 22:52:00,19.0,12.0,29.12,SSW,195,5.0,18.0,75,0.00,,,0.01,,2013-02-18 03:52:00,
2013-02-17 23:01:00,19.0,12.0,29.13,SSE,165,6.0,22.0,75,0.00,,,0.01,,2013-02-18 04:01:00,
2013-02-17 23:11:00,19.0,12.0,29.13,SSE,165,6.0,22.0,75,0.00,,,0.01,,2013-02-18 04:11:00,
2013-02-17 23:21:00,19.0,13.0,29.14,East,84,4.0,15.0,76,0.00,,,0.01,,2013-02-18 04:21:00,
2013-02-17 23:32:00,18.0,12.0,29.16,SSE,150,5.0,19.0,77,0.00,,,0.01,,2013-02-18 04:32:00,
2013-02-17 23:42:00,18.0,12.0,29.16,SSE,150,5.0,19.0,77,0.00,,,0.01,,2013-02-18 04:42:00,
2013-02-17 23:52:00,18.0,12.0,29.17,SSE,165,4.0,16.0,77,0.00,,,0.01,,2013-02-18 04:52:00,